カタログに戻る

BREEZE-M DEB

LostHEO
NORAD 38642·DEBRIS·🇷🇺 Russia

打ち上げ Mar 14, 2008 から Baikonur Cosmodrome

Loading…

次のパス (今後24時間)

TLE

古いSource: Space-Track

元期: Dec 20, 2025, 01:16 UTC

1 38642U 08011CR  25354.05295196 -.00000708  00000-0 -21098-1 0  9997
2 38642  48.7483  18.7215 6362014 246.5936  81.4627  3.08632421 17858

AllMySatでBREEZE-M DEBをリアルタイム追跡

Download on the App Store